nws-alerts: Checking more than four warning/county codes can delay the loading of your pages. You should use a cron job to get the data.
EllijayWeather Historical Data
Daily Summary for November 29, 2018 Units:  Both    English   Metric
Daily Weekly Monthly Yearly
  High: Low: Average:
Temperature: 45.0 °F /  7.2 °C 24.0 °F /  -4.4 °C 35 °F /  1.7 °C
Dew Point: 28.0 °F /  -2.2 °C 17.0 °F /  -8.3 °C 22.7 °F /  -5.2 °C
Humidity: 83% 46% 62%
Wind Speed: 0mph /  0km/h - 0mph /  0km/h
Wind Gust: 1mph /  1.6km/h - -
Wind- -
Pressure: 30.3 in /  1026 hPa 30.2 in /  1022.6 hPa -
Precipitation: 0.050 in /  1.27 mm    
 
 
Tabular Data for November 29, 2018
Time Temperature Dew Point Pressure Wind Wind Speed Wind Gust Humidity Rainfall Rate (Hourly)
00:04 28.0 °F /  -2.2 °C 22.0 °F /  -5.6 °C 30.2in /  1022.6hPa Calm     78% 0.000in /  0mm
00:09 28.0 °F /  -2.2 °C 22.0 °F /  -5.6 °C 30.2in /  1022.6hPa Calm     78% 0.000in /  0mm
00:14 28.0 °F /  -2.2 °C 22.0 °F /  -5.6 °C 30.2in /  1022.6hPa Calm     78% 0.000in /  0mm
00:19 28.0 °F /  -2.2 °C 22.0 °F /  -5.6 °C 30.2in /  1022.6hPa Calm     78% 0.000in /  0mm
00:24 28.0 °F /  -2.2 °C 22.0 °F /  -5.6 °C 30.2in /  1022.6hPa Calm     78% 0.000in /  0mm
00:29 28.0 °F /  -2.2 °C 22.0 °F /  -5.6 °C 30.2in /  1022.6hPa Calm     78% 0.000in /  0mm
00:34 28.0 °F /  -2.2 °C 22.0 °F /  -5.6 °C 30.2in /  1022.6hPa Calm     78% 0.000in /  0mm
00:39 28.0 °F /  -2.2 °C 22.0 °F /  -5.6 °C 30.2in /  1022.6hPa Calm     78% 0.000in /  0mm
00:44 27.0 °F /  -2.8 °C 21.0 °F /  -6.1 °C 30.2in /  1022.6hPa Calm     78% 0.000in /  0mm
00:49 28.0 °F /  -2.2 °C 22.0 °F /  -5.6 °C 30.2in /  1022.6hPa Calm     78% 0.000in /  0mm
00:54 28.0 °F /  -2.2 °C 22.0 °F /  -5.6 °C 30.2in /  1022.6hPa Calm     78% 0.000in /  0mm
00:59 28.0 °F /  -2.2 °C 22.0 °F /  -5.6 °C 30.2in /  1022.6hPa Calm     78% 0.000in /  0mm
01:04 27.0 °F /  -2.8 °C 21.0 °F /  -6.1 °C 30.2in /  1022.6hPa Calm     78% 0.000in /  0mm
01:09 27.0 °F /  -2.8 °C 21.0 °F /  -6.1 °C 30.2in /  1022.6hPa Calm     78% 0.000in /  0mm
01:14 27.0 °F /  -2.8 °C 21.0 °F /  -6.1 °C 30.2in /  1022.6hPa Calm     78% 0.000in /  0mm
01:19 27.0 °F /  -2.8 °C 21.0 °F /  -6.1 °C 30.2in /  1022.6hPa Calm     78% 0.000in /  0mm
01:24 27.0 °F /  -2.8 °C 21.0 °F /  -6.1 °C 30.2in /  1022.6hPa Calm     78% 0.000in /  0mm
01:29 27.0 °F /  -2.8 °C 21.0 °F /  -6.1 °C 30.2in /  1022.6hPa Calm     78% 0.000in /  0mm
01:34 27.0 °F /  -2.8 °C 21.0 °F /  -6.1 °C 30.2in /  1022.6hPa Calm     78% 0.000in /  0mm
01:39 27.0 °F /  -2.8 °C 21.0 °F /  -6.1 °C 30.2in /  1022.6hPa Calm     78% 0.000in /  0mm
01:44 27.0 °F /  -2.8 °C 21.0 °F /  -6.1 °C 30.2in /  1022.6hPa Calm     78% 0.000in /  0mm
01:49 27.0 °F /  -2.8 °C 21.0 °F /  -6.1 °C 30.2in /  1022.6hPa Calm     78% 0.000in /  0mm
01:54 27.0 °F /  -2.8 °C 21.0 °F /  -6.1 °C 30.2in /  1022.6hPa Calm     78% 0.000in /  0mm
01:59 27.0 °F /  -2.8 °C 21.0 °F /  -6.1 °C 30.2in /  1022.6hPa Calm     78% 0.000in /  0mm
02:04 27.0 °F /  -2.8 °C 21.0 °F /  -6.1 °C 30.2in /  1022.6hPa Calm     78% 0.000in /  0mm
02:09 27.0 °F /  -2.8 °C 21.0 °F /  -6.1 °C 30.2in /  1022.6hPa Calm     78% 0.000in /  0mm
02:14 26.0 °F /  -3.3 °C 20.0 °F /  -6.7 °C 30.2in /  1022.6hPa Calm     77% 0.000in /  0mm
02:19 26.0 °F /  -3.3 °C 21.0 °F /  -6.1 °C 30.2in /  1022.6hPa Calm     78% 0.000in /  0mm
02:24 26.0 °F /  -3.3 °C 21.0 °F /  -6.1 °C 30.2in /  1022.6hPa Calm     78% 0.000in /  0mm
02:29 26.0 °F /  -3.3 °C 20.0 °F /  -6.7 °C 30.2in /  1022.6hPa Calm     77% 0.000in /  0mm
02:34 26.0 °F /  -3.3 °C 20.0 °F /  -6.7 °C 30.2in /  1022.6hPa Calm     77% 0.000in /  0mm
02:39 26.0 °F /  -3.3 °C 20.0 °F /  -6.7 °C 30.2in /  1022.6hPa Calm     77% 0.000in /  0mm
02:44 26.0 °F /  -3.3 °C 20.0 °F /  -6.7 °C 30.2in /  1022.6hPa Calm     77% 0.000in /  0mm
02:49 26.0 °F /  -3.3 °C 20.0 °F /  -6.7 °C 30.2in /  1022.6hPa Calm     77% 0.000in /  0mm
02:54 26.0 °F /  -3.3 °C 20.0 °F /  -6.7 °C 30.2in /  1022.6hPa Calm     77% 0.000in /  0mm
02:59 26.0 °F /  -3.3 °C 20.0 °F /  -6.7 °C 30.2in /  1022.6hPa Calm     77% 0.000in /  0mm
03:04 26.0 °F /  -3.3 °C 20.0 °F /  -6.7 °C 30.2in /  1022.6hPa Calm     77% 0.000in /  0mm
03:09 26.0 °F /  -3.3 °C 20.0 °F /  -6.7 °C 30.2in /  1022.6hPa Calm     77% 0.000in /  0mm
03:14 26.0 °F /  -3.3 °C 20.0 °F /  -6.7 °C 30.2in /  1022.6hPa Calm     77% 0.000in /  0mm
03:19 26.0 °F /  -3.3 °C 20.0 °F /  -6.7 °C 30.2in /  1022.6hPa Calm     77% 0.000in /  0mm
03:24 26.0 °F /  -3.3 °C 20.0 °F /  -6.7 °C 30.2in /  1022.6hPa Calm     77% 0.000in /  0mm
03:29 26.0 °F /  -3.3 °C 20.0 °F /  -6.7 °C 30.2in /  1022.6hPa Calm     77% 0.000in /  0mm
03:34 26.0 °F /  -3.3 °C 20.0 °F /  -6.7 °C 30.2in /  1022.6hPa Calm     77% 0.000in /  0mm
03:39 26.0 °F /  -3.3 °C 20.0 °F /  -6.7 °C 30.2in /  1022.6hPa Calm     77% 0.000in /  0mm
03:44 26.0 °F /  -3.3 °C 19.0 °F /  -7.2 °C 30.2in /  1022.6hPa Calm     77% 0.000in /  0mm
03:49 26.0 °F /  -3.3 °C 19.0 °F /  -7.2 °C 30.2in /  1022.6hPa Calm     77% 0.000in /  0mm
03:54 26.0 °F /  -3.3 °C 19.0 °F /  -7.2 °C 30.2in /  1022.6hPa Calm     77% 0.000in /  0mm
03:59 25.0 °F /  -3.9 °C 19.0 °F /  -7.2 °C 30.2in /  1022.6hPa Calm     76% 0.000in /  0mm
04:04 25.0 °F /  -3.9 °C 19.0 °F /  -7.2 °C 30.2in /  1022.6hPa Calm     77% 0.000in /  0mm
04:09 25.0 °F /  -3.9 °C 21.0 °F /  -6.1 °C 30.2in /  1022.6hPa Calm     83% 0.000in /  0mm
04:14 25.0 °F /  -3.9 °C 19.0 °F /  -7.2 °C 30.2in /  1022.6hPa Calm     76% 0.000in /  0mm
04:19 25.0 °F /  -3.9 °C 19.0 °F /  -7.2 °C 30.2in /  1022.6hPa Calm     76% 0.000in /  0mm
04:24 25.0 °F /  -3.9 °C 19.0 °F /  -7.2 °C 30.2in /  1022.6hPa Calm     76% 0.000in /  0mm
04:29 25.0 °F /  -3.9 °C 19.0 °F /  -7.2 °C 30.2in /  1022.6hPa Calm     76% 0.000in /  0mm
04:34 25.0 °F /  -3.9 °C 19.0 °F /  -7.2 °C 30.2in /  1022.6hPa Calm     76% 0.000in /  0mm
04:39 25.0 °F /  -3.9 °C 18.0 °F /  -7.8 °C 30.2in /  1022.6hPa Calm     76% 0.000in /  0mm
04:44 25.0 °F /  -3.9 °C 18.0 °F /  -7.8 °C 30.2in /  1022.6hPa Calm     76% 0.000in /  0mm
04:49 25.0 °F /  -3.9 °C 18.0 °F /  -7.8 °C 30.2in /  1022.6hPa Calm     76% 0.000in /  0mm
04:54 24.0 °F /  -4.4 °C 18.0 °F /  -7.8 °C 30.2in /  1022.6hPa Calm     76% 0.000in /  0mm
04:59 24.0 °F /  -4.4 °C 18.0 °F /  -7.8 °C 30.2in /  1022.6hPa Calm     75% 0.000in /  0mm
05:04 24.0 °F /  -4.4 °C 18.0 °F /  -7.8 °C 30.2in /  1022.6hPa Calm     75% 0.000in /  0mm
05:09 24.0 °F /  -4.4 °C 18.0 °F /  -7.8 °C 30.2in /  1022.6hPa Calm     75% 0.000in /  0mm
05:14 24.0 °F /  -4.4 °C 18.0 °F /  -7.8 °C 30.2in /  1022.6hPa Calm     75% 0.000in /  0mm
05:19 24.0 °F /  -4.4 °C 18.0 °F /  -7.8 °C 30.2in /  1022.6hPa Calm     75% 0.000in /  0mm
05:24 24.0 °F /  -4.4 °C 17.0 °F /  -8.3 °C 30.2in /  1022.6hPa Calm     74% 0.000in /  0mm
05:29 24.0 °F /  -4.4 °C 17.0 °F /  -8.3 °C 30.2in /  1022.6hPa Calm     74% 0.000in /  0mm
05:34 25.0 °F /  -3.9 °C 18.0 °F /  -7.8 °C 30.2in /  1022.6hPa Calm     74% 0.000in /  0mm
05:39 25.0 °F /  -3.9 °C 18.0 °F /  -7.8 °C 30.2in /  1022.6hPa Calm     74% 0.000in /  0mm
05:44 25.0 °F /  -3.9 °C 18.0 °F /  -7.8 °C 30.2in /  1022.6hPa Calm     74% 0.000in /  0mm
05:49 25.0 °F /  -3.9 °C 18.0 °F /  -7.8 °C 30.2in /  1022.6hPa Calm     74% 0.000in /  0mm
05:54 25.0 °F /  -3.9 °C 18.0 °F /  -7.8 °C 30.2in /  1022.6hPa Calm     74% 0.000in /  0mm
05:59 25.0 °F /  -3.9 °C 18.0 °F /  -7.8 °C 30.2in /  1022.6hPa Calm     74% 0.000in /  0mm
06:04 25.0 °F /  -3.9 °C 18.0 °F /  -7.8 °C 30.2in /  1022.6hPa Calm     74% 0.000in /  0mm
06:09 25.0 °F /  -3.9 °C 18.0 °F /  -7.8 °C 30.2in /  1022.6hPa Calm     74% 0.000in /  0mm
06:14 25.0 °F /  -3.9 °C 18.0 °F /  -7.8 °C 30.2in /  1022.6hPa Calm     74% 0.000in /  0mm
06:19 25.0 °F /  -3.9 °C 18.0 °F /  -7.8 °C 30.3in /  1026hPa Calm     74% 0.000in /  0mm
06:24 25.0 °F /  -3.9 °C 18.0 °F /  -7.8 °C 30.3in /  1026hPa Calm     74% 0.000in /  0mm
06:29 25.0 °F /  -3.9 °C 18.0 °F /  -7.8 °C 30.3in /  1026hPa Calm     74% 0.000in /  0mm
06:34 25.0 °F /  -3.9 °C 18.0 °F /  -7.8 °C 30.3in /  1026hPa Calm     74% 0.000in /  0mm
06:39 25.0 °F /  -3.9 °C 18.0 °F /  -7.8 °C 30.3in /  1026hPa Calm     74% 0.000in /  0mm
06:44 25.0 °F /  -3.9 °C 18.0 °F /  -7.8 °C 30.3in /  1026hPa Calm     74% 0.000in /  0mm
06:49 25.0 °F /  -3.9 °C 18.0 °F /  -7.8 °C 30.3in /  1026hPa Calm     74% 0.000in /  0mm
06:54 24.0 °F /  -4.4 °C 17.0 °F /  -8.3 °C 30.3in /  1026hPa Calm     74% 0.000in /  0mm
06:59 24.0 °F /  -4.4 °C 17.0 °F /  -8.3 °C 30.3in /  1026hPa Calm     74% 0.000in /  0mm
07:04 24.0 °F /  -4.4 °C 17.0 °F /  -8.3 °C 30.3in /  1026hPa Calm     74% 0.000in /  0mm
07:09 24.0 °F /  -4.4 °C 17.0 °F /  -8.3 °C 30.3in /  1026hPa Calm     74% 0.000in /  0mm
07:14 24.0 °F /  -4.4 °C 17.0 °F /  -8.3 °C 30.3in /  1026hPa Calm     74% 0.000in /  0mm
07:19 24.0 °F /  -4.4 °C 17.0 °F /  -8.3 °C 30.3in /  1026hPa Calm     74% 0.000in /  0mm
07:24 24.0 °F /  -4.4 °C 17.0 °F /  -8.3 °C 30.3in /  1026hPa Calm     74% 0.000in /  0mm
07:29 24.0 °F /  -4.4 °C 17.0 °F /  -8.3 °C 30.3in /  1026hPa Calm     73% 0.000in /  0mm
07:34 24.0 °F /  -4.4 °C 17.0 °F /  -8.3 °C 30.3in /  1026hPa Calm     73% 0.000in /  0mm
07:39 24.0 °F /  -4.4 °C 17.0 °F /  -8.3 °C 30.3in /  1026hPa Calm     73% 0.000in /  0mm
07:44 24.0 °F /  -4.4 °C 17.0 °F /  -8.3 °C 30.3in /  1026hPa Calm     73% 0.000in /  0mm
07:49 25.0 °F /  -3.9 °C 17.0 °F /  -8.3 °C 30.3in /  1026hPa Calm     73% 0.000in /  0mm
07:54 25.0 °F /  -3.9 °C 17.0 °F /  -8.3 °C 30.3in /  1026hPa Calm     72% 0.000in /  0mm
07:59 25.0 °F /  -3.9 °C 17.0 °F /  -8.3 °C 30.3in /  1026hPa Calm     72% 0.000in /  0mm
08:04 25.0 °F /  -3.9 °C 17.0 °F /  -8.3 °C 30.3in /  1026hPa Calm     72% 0.000in /  0mm
08:09 25.0 °F /  -3.9 °C 17.0 °F /  -8.3 °C 30.3in /  1026hPa Calm     72% 0.000in /  0mm
08:14 25.0 °F /  -3.9 °C 17.0 °F /  -8.3 °C 30.3in /  1026hPa Calm     71% 0.000in /  0mm
08:19 26.0 °F /  -3.3 °C 17.0 °F /  -8.3 °C 30.3in /  1026hPa Calm     71% 0.000in /  0mm
08:24 26.0 °F /  -3.3 °C 18.0 °F /  -7.8 °C 30.3in /  1026hPa Calm     71% 0.000in /  0mm
08:29 26.0 °F /  -3.3 °C 18.0 °F /  -7.8 °C 30.3in /  1026hPa Calm     71% 0.000in /  0mm
08:34 26.0 °F /  -3.3 °C 18.0 °F /  -7.8 °C 30.3in /  1026hPa Calm     70% 0.000in /  0mm
08:39 27.0 °F /  -2.8 °C 18.0 °F /  -7.8 °C 30.3in /  1026hPa Calm     70% 0.000in /  0mm
08:44 28.0 °F /  -2.2 °C 19.0 °F /  -7.2 °C 30.3in /  1026hPa Calm     69% 0.000in /  0mm
08:49 28.0 °F /  -2.2 °C 20.0 °F /  -6.7 °C 30.3in /  1026hPa Calm     70% 0.000in /  0mm
08:54 29.0 °F /  -1.7 °C 21.0 °F /  -6.1 °C 30.3in /  1026hPa Calm     70% 0.000in /  0mm
08:59 29.0 °F /  -1.7 °C 21.0 °F /  -6.1 °C 30.3in /  1026hPa Calm     72% 0.000in /  0mm
09:04 30.0 °F /  -1.1 °C 23.0 °F /  -5 °C 30.3in /  1026hPa Calm     74% 0.000in /  0mm
09:09 30.0 °F /  -1.1 °C 23.0 °F /  -5 °C 30.3in /  1026hPa Calm     74% 0.000in /  0mm
09:14 31.0 °F /  -0.6 °C 24.0 °F /  -4.4 °C 30.2in /  1022.6hPa Calm     76% 0.000in /  0mm
09:19 31.0 °F /  -0.6 °C 24.0 °F /  -4.4 °C 30.3in /  1026hPa Calm     76% 0.000in /  0mm
09:24 32.0 °F /  0 °C 25.0 °F /  -3.9 °C 30.3in /  1026hPa Calm     77% 0.000in /  0mm
09:29 32.0 °F /  0 °C 25.0 °F /  -3.9 °C 30.3in /  1026hPa Calm     77% 0.000in /  0mm
09:34 32.0 °F /  0 °C 26.0 °F /  -3.3 °C 30.3in /  1026hPa Calm     77% 0.000in /  0mm
09:39 32.0 °F /  0 °C 26.0 °F /  -3.3 °C 30.3in /  1026hPa Calm     76% 0.000in /  0mm
09:44 33.0 °F /  0.6 °C 26.0 °F /  -3.3 °C 30.3in /  1026hPa Calm     77% 0.000in /  0mm
09:49 33.0 °F /  0.6 °C 26.0 °F /  -3.3 °C 30.3in /  1026hPa Calm     77% 0.000in /  0mm
09:54 33.0 °F /  0.6 °C 26.0 °F /  -3.3 °C 30.3in /  1026hPa Calm     77% 0.000in /  0mm
09:59 33.0 °F /  0.6 °C 27.0 °F /  -2.8 °C 30.3in /  1026hPa Calm     77% 0.000in /  0mm
10:04 33.0 °F /  0.6 °C 27.0 °F /  -2.8 °C 30.3in /  1026hPa Calm     77% 0.000in /  0mm
10:09 33.0 °F /  0.6 °C 27.0 °F /  -2.8 °C 30.3in /  1026hPa Calm     77% 0.000in /  0mm
10:14 33.0 °F /  0.6 °C 27.0 °F /  -2.8 °C 30.3in /  1026hPa Calm     77% 0.000in /  0mm
10:19 33.0 °F /  0.6 °C 27.0 °F /  -2.8 °C 30.3in /  1026hPa Calm     77% 0.000in /  0mm
10:24 33.0 °F /  0.6 °C 27.0 °F /  -2.8 °C 30.3in /  1026hPa Calm     77% 0.000in /  0mm
10:29 34.0 °F /  1.1 °C 27.0 °F /  -2.8 °C 30.3in /  1026hPa Calm     77% 0.000in /  0mm
10:34 34.0 °F /  1.1 °C 28.0 °F /  -2.2 °C 30.3in /  1026hPa Calm     77% 0.000in /  0mm
10:39 34.0 °F /  1.1 °C 28.0 °F /  -2.2 °C 30.3in /  1026hPa Calm     77% 0.000in /  0mm
10:44 35.0 °F /  1.7 °C 28.0 °F /  -2.2 °C 30.3in /  1026hPa Calm     77% 0.000in /  0mm
10:49 35.0 °F /  1.7 °C 28.0 °F /  -2.2 °C 30.3in /  1026hPa Calm     77% 0.000in /  0mm
10:54 35.0 °F /  1.7 °C 28.0 °F /  -2.2 °C 30.3in /  1026hPa Calm     77% 0.000in /  0mm
10:59 35.0 °F /  1.7 °C 28.0 °F /  -2.2 °C 30.3in /  1026hPa Calm     77% 0.000in /  0mm
11:04 35.0 °F /  1.7 °C 28.0 °F /  -2.2 °C 30.3in /  1026hPa Calm     77% 0.000in /  0mm
11:09 35.0 °F /  1.7 °C 28.0 °F /  -2.2 °C 30.3in /  1026hPa Calm     77% 0.000in /  0mm
11:14 35.0 °F /  1.7 °C 28.0 °F /  -2.2 °C 30.3in /  1026hPa Calm     76% 0.000in /  0mm
11:19 35.0 °F /  1.7 °C 28.0 °F /  -2.2 °C 30.3in /  1026hPa Calm     75% 0.000in /  0mm
11:24 35.0 °F /  1.7 °C 28.0 °F /  -2.2 °C 30.3in /  1026hPa Calm     73% 0.000in /  0mm
11:29 35.0 °F /  1.7 °C 27.0 °F /  -2.8 °C 30.3in /  1026hPa Calm     72% 0.000in /  0mm
11:34 35.0 °F /  1.7 °C 26.0 °F /  -3.3 °C 30.3in /  1026hPa Calm     70% 0.000in /  0mm
11:39 35.0 °F /  1.7 °C 26.0 °F /  -3.3 °C 30.3in /  1026hPa Calm     70% 0.000in /  0mm
11:44 35.0 °F /  1.7 °C 26.0 °F /  -3.3 °C 30.2in /  1022.6hPa Calm     69% 0.000in /  0mm
11:49 36.0 °F /  2.2 °C 26.0 °F /  -3.3 °C 30.2in /  1022.6hPa Calm     68% 0.000in /  0mm
11:54 36.0 °F /  2.2 °C 25.0 °F /  -3.9 °C 30.2in /  1022.6hPa Calm     66% 0.000in /  0mm
11:59 36.0 °F /  2.2 °C 25.0 °F /  -3.9 °C 30.2in /  1022.6hPa Calm     65% 0.000in /  0mm
12:04 36.0 °F /  2.2 °C 25.0 °F /  -3.9 °C 30.2in /  1022.6hPa Calm     64% 0.000in /  0mm
12:09 36.0 °F /  2.2 °C 25.0 °F /  -3.9 °C 30.2in /  1022.6hPa Calm     63% 0.010in /  0.25mm
12:14 36.0 °F /  2.2 °C 25.0 °F /  -3.9 °C 30.2in /  1022.6hPa Calm     63% 0.020in /  0.51mm
12:19 36.0 °F /  2.2 °C 24.0 °F /  -4.4 °C 30.2in /  1022.6hPa Calm     62% 0.030in /  0.76mm
12:24 36.0 °F /  2.2 °C 24.0 °F /  -4.4 °C 30.2in /  1022.6hPa Calm     61% 0.030in /  0.76mm
12:29 36.0 °F /  2.2 °C 24.0 °F /  -4.4 °C 30.2in /  1022.6hPa Calm     61% 0.030in /  0.76mm
12:34 37.0 °F /  2.8 °C 24.0 °F /  -4.4 °C 30.2in /  1022.6hPa Calm     60% 0.030in /  0.76mm
12:39 37.0 °F /  2.8 °C 24.0 °F /  -4.4 °C 30.2in /  1022.6hPa Calm     59% 0.030in /  0.76mm
12:44 37.0 °F /  2.8 °C 24.0 °F /  -4.4 °C 30.2in /  1022.6hPa Calm     59% 0.030in /  0.76mm
12:49 37.0 °F /  2.8 °C 24.0 °F /  -4.4 °C 30.2in /  1022.6hPa Calm     58% 0.030in /  0.76mm
12:54 37.0 °F /  2.8 °C 24.0 °F /  -4.4 °C 30.2in /  1022.6hPa Calm     58% 0.030in /  0.76mm
12:59 37.0 °F /  2.8 °C 23.0 °F /  -5 °C 30.2in /  1022.6hPa Calm     57% 0.030in /  0.76mm
13:04 37.0 °F /  2.8 °C 23.0 °F /  -5 °C 30.2in /  1022.6hPa Calm     56% 0.030in /  0.76mm
13:09 38.0 °F /  3.3 °C 23.0 °F /  -5 °C 30.2in /  1022.6hPa Calm     56% 0.020in /  0.51mm
13:14 38.0 °F /  3.3 °C 23.0 °F /  -5 °C 30.2in /  1022.6hPa Calm     55% 0.020in /  0.51mm
13:19 38.0 °F /  3.3 °C 23.0 °F /  -5 °C 30.2in /  1022.6hPa Calm     54% 0.010in /  0.25mm
13:24 38.0 °F /  3.3 °C 23.0 °F /  -5 °C 30.2in /  1022.6hPa Calm     54% 0.000in /  0mm
13:29 39.0 °F /  3.9 °C 23.0 °F /  -5 °C 30.2in /  1022.6hPa Calm     54% 0.000in /  0mm
13:34 39.0 °F /  3.9 °C 23.0 °F /  -5 °C 30.2in /  1022.6hPa Calm     54% 0.000in /  0mm
13:39 39.0 °F /  3.9 °C 23.0 °F /  -5 °C 30.2in /  1022.6hPa Calm     53% 0.000in /  0mm
13:44 39.0 °F /  3.9 °C 23.0 °F /  -5 °C 30.2in /  1022.6hPa Calm     53% 0.000in /  0mm
13:49 40.0 °F /  4.4 °C 23.0 °F /  -5 °C 30.2in /  1022.6hPa Calm     52% 0.000in /  0mm
13:54 40.0 °F /  4.4 °C 23.0 °F /  -5 °C 30.2in /  1022.6hPa Calm     52% 0.000in /  0mm
13:59 40.0 °F /  4.4 °C 23.0 °F /  -5 °C 30.2in /  1022.6hPa Calm     52% 0.000in /  0mm
14:04 40.0 °F /  4.4 °C 24.0 °F /  -4.4 °C 30.2in /  1022.6hPa Calm     52% 0.000in /  0mm
14:09 40.0 °F /  4.4 °C 23.0 °F /  -5 °C 30.2in /  1022.6hPa Calm     51% 0.000in /  0mm
14:14 40.0 °F /  4.4 °C 24.0 °F /  -4.4 °C 30.2in /  1022.6hPa Calm     51% 0.000in /  0mm
14:19 41.0 °F /  5 °C 24.0 °F /  -4.4 °C 30.2in /  1022.6hPa Calm     51% 0.000in /  0mm
14:24 41.0 °F /  5 °C 24.0 °F /  -4.4 °C 30.2in /  1022.6hPa Calm     50% 0.000in /  0mm
14:29 41.0 °F /  5 °C 25.0 °F /  -3.9 °C 30.2in /  1022.6hPa Calm     53% 0.000in /  0mm
14:34 41.0 °F /  5 °C 24.0 °F /  -4.4 °C 30.2in /  1022.6hPa Calm     50% 0.000in /  0mm
14:39 41.0 °F /  5 °C 24.0 °F /  -4.4 °C 30.2in /  1022.6hPa Calm     50% 0.000in /  0mm
14:44 42.0 °F /  5.6 °C 24.0 °F /  -4.4 °C 30.2in /  1022.6hPa Calm     49% 0.000in /  0mm
14:49 42.0 °F /  5.6 °C 24.0 °F /  -4.4 °C 30.2in /  1022.6hPa Calm     49% 0.000in /  0mm
14:54 42.0 °F /  5.6 °C 24.0 °F /  -4.4 °C 30.2in /  1022.6hPa Calm     49% 0.000in /  0mm
14:59 42.0 °F /  5.6 °C 24.0 °F /  -4.4 °C 30.2in /  1022.6hPa Calm     49% 0.000in /  0mm
15:04 42.0 °F /  5.6 °C 24.0 °F /  -4.4 °C 30.2in /  1022.6hPa Calm     49% 0.000in /  0mm
15:09 42.0 °F /  5.6 °C 24.0 °F /  -4.4 °C 30.2in /  1022.6hPa Calm     49% 0.000in /  0mm
15:14 42.0 °F /  5.6 °C 24.0 °F /  -4.4 °C 30.2in /  1022.6hPa Calm     49% 0.000in /  0mm
15:19 42.0 °F /  5.6 °C 25.0 °F /  -3.9 °C 30.2in /  1022.6hPa Calm     49% 0.000in /  0mm
15:24 43.0 °F /  6.1 °C 25.0 °F /  -3.9 °C 30.2in /  1022.6hPa Calm     49% 0.000in /  0mm
15:29 43.0 °F /  6.1 °C 24.0 °F /  -4.4 °C 30.2in /  1022.6hPa Calm   1mph /  1.6km/h 48% 0.000in /  0mm
15:34 43.0 °F /  6.1 °C 24.0 °F /  -4.4 °C 30.2in /  1022.6hPa Calm   1mph /  1.6km/h 48% 0.000in /  0mm
15:39 43.0 °F /  6.1 °C 25.0 °F /  -3.9 °C 30.2in /  1022.6hPa Calm     48% 0.000in /  0mm
15:44 43.0 °F /  6.1 °C 25.0 °F /  -3.9 °C 30.2in /  1022.6hPa Calm     48% 0.000in /  0mm
15:49 43.0 °F /  6.1 °C 25.0 °F /  -3.9 °C 30.2in /  1022.6hPa Calm     48% 0.010in /  0.25mm
15:54 43.0 °F /  6.1 °C 25.0 °F /  -3.9 °C 30.2in /  1022.6hPa Calm     48% 0.010in /  0.25mm
15:59 43.0 °F /  6.1 °C 25.0 °F /  -3.9 °C 30.2in /  1022.6hPa Calm     48% 0.010in /  0.25mm
16:04 43.0 °F /  6.1 °C 25.0 °F /  -3.9 °C 30.2in /  1022.6hPa Calm     48% 0.010in /  0.25mm
16:09 43.0 °F /  6.1 °C 25.0 °F /  -3.9 °C 30.2in /  1022.6hPa Calm     49% 0.010in /  0.25mm
16:14 43.0 °F /  6.1 °C 25.0 °F /  -3.9 °C 30.2in /  1022.6hPa Calm     49% 0.010in /  0.25mm
16:19 43.0 °F /  6.1 °C 25.0 °F /  -3.9 °C 30.2in /  1022.6hPa Calm     49% 0.010in /  0.25mm
16:24 43.0 °F /  6.1 °C 25.0 °F /  -3.9 °C 30.2in /  1022.6hPa Calm     49% 0.010in /  0.25mm
16:29 43.0 °F /  6.1 °C 25.0 °F /  -3.9 °C 30.2in /  1022.6hPa Calm     49% 0.010in /  0.25mm
16:34 43.0 °F /  6.1 °C 25.0 °F /  -3.9 °C 30.2in /  1022.6hPa Calm     49% 0.010in /  0.25mm
16:39 43.0 °F /  6.1 °C 24.0 °F /  -4.4 °C 30.2in /  1022.6hPa Calm     48% 0.010in /  0.25mm
16:44 43.0 °F /  6.1 °C 24.0 °F /  -4.4 °C 30.2in /  1022.6hPa Calm   1mph /  1.6km/h 48% 0.010in /  0.25mm
16:49 43.0 °F /  6.1 °C 24.0 °F /  -4.4 °C 30.2in /  1022.6hPa Calm     48% 0.010in /  0.25mm
16:54 43.0 °F /  6.1 °C 24.0 °F /  -4.4 °C 30.2in /  1022.6hPa Calm     48% 0.000in /  0mm
16:59 43.0 °F /  6.1 °C 24.0 °F /  -4.4 °C 30.2in /  1022.6hPa Calm     48% 0.000in /  0mm
17:04 43.0 °F /  6.1 °C 24.0 °F /  -4.4 °C 30.2in /  1022.6hPa Calm     48% 0.000in /  0mm
17:09 43.0 °F /  6.1 °C 24.0 °F /  -4.4 °C 30.2in /  1022.6hPa Calm     48% 0.000in /  0mm
17:14 42.0 °F /  5.6 °C 24.0 °F /  -4.4 °C 30.2in /  1022.6hPa Calm     48% 0.000in /  0mm
17:19 42.0 °F /  5.6 °C 25.0 °F /  -3.9 °C 30.2in /  1022.6hPa Calm     49% 0.000in /  0mm
17:24 42.0 °F /  5.6 °C 25.0 °F /  -3.9 °C 30.2in /  1022.6hPa Calm     49% 0.000in /  0mm
17:29 42.0 °F /  5.6 °C 25.0 °F /  -3.9 °C 30.2in /  1022.6hPa Calm     49% 0.000in /  0mm
17:34 42.0 °F /  5.6 °C 24.0 °F /  -4.4 °C 30.2in /  1022.6hPa Calm     49% 0.000in /  0mm
17:39 42.0 °F /  5.6 °C 24.0 °F /  -4.4 °C 30.2in /  1022.6hPa Calm     49% 0.000in /  0mm
17:44 42.0 °F /  5.6 °C 24.0 °F /  -4.4 °C 30.2in /  1022.6hPa Calm     49% 0.000in /  0mm
17:49 42.0 °F /  5.6 °C 24.0 °F /  -4.4 °C 30.2in /  1022.6hPa Calm     49% 0.000in /  0mm
17:54 42.0 °F /  5.6 °C 24.0 °F /  -4.4 °C 30.2in /  1022.6hPa Calm     49% 0.000in /  0mm
17:59 42.0 °F /  5.6 °C 24.0 °F /  -4.4 °C 30.2in /  1022.6hPa Calm     48% 0.000in /  0mm
18:04 42.0 °F /  5.6 °C 24.0 °F /  -4.4 °C 30.2in /  1022.6hPa Calm     48% 0.000in /  0mm
18:09 42.0 °F /  5.6 °C 24.0 °F /  -4.4 °C 30.2in /  1022.6hPa Calm     48% 0.000in /  0mm
18:14 42.0 °F /  5.6 °C 24.0 °F /  -4.4 °C 30.2in /  1022.6hPa Calm     48% 0.000in /  0mm
18:19 42.0 °F /  5.6 °C 24.0 °F /  -4.4 °C 30.2in /  1022.6hPa Calm     48% 0.000in /  0mm
18:24 42.0 °F /  5.6 °C 24.0 °F /  -4.4 °C 30.2in /  1022.6hPa Calm     48% 0.000in /  0mm
18:29 42.0 °F /  5.6 °C 24.0 °F /  -4.4 °C 30.2in /  1022.6hPa Calm     48% 0.000in /  0mm
18:34 42.0 °F /  5.6 °C 24.0 °F /  -4.4 °C 30.2in /  1022.6hPa Calm     48% 0.000in /  0mm
18:39 42.0 °F /  5.6 °C 24.0 °F /  -4.4 °C 30.2in /  1022.6hPa Calm     48% 0.000in /  0mm
18:44 43.0 °F /  6.1 °C 24.0 °F /  -4.4 °C 30.2in /  1022.6hPa Calm     48% 0.000in /  0mm
18:49 43.0 °F /  6.1 °C 24.0 °F /  -4.4 °C 30.2in /  1022.6hPa Calm     48% 0.000in /  0mm
18:54 43.0 °F /  6.1 °C 24.0 °F /  -4.4 °C 30.2in /  1022.6hPa Calm     48% 0.000in /  0mm
18:59 43.0 °F /  6.1 °C 25.0 °F /  -3.9 °C 30.2in /  1022.6hPa Calm     48% 0.000in /  0mm
19:04 43.0 °F /  6.1 °C 24.0 °F /  -4.4 °C 30.2in /  1022.6hPa Calm     47% 0.000in /  0mm
19:09 43.0 °F /  6.1 °C 24.0 °F /  -4.4 °C 30.2in /  1022.6hPa Calm     47% 0.000in /  0mm
19:14 43.0 °F /  6.1 °C 24.0 °F /  -4.4 °C 30.2in /  1022.6hPa Calm     47% 0.000in /  0mm
19:19 43.0 °F /  6.1 °C 24.0 °F /  -4.4 °C 30.2in /  1022.6hPa Calm     47% 0.000in /  0mm
19:24 43.0 °F /  6.1 °C 24.0 °F /  -4.4 °C 30.2in /  1022.6hPa Calm     47% 0.000in /  0mm
19:29 43.0 °F /  6.1 °C 24.0 °F /  -4.4 °C 30.2in /  1022.6hPa Calm     47% 0.000in /  0mm
19:34 43.0 °F /  6.1 °C 24.0 °F /  -4.4 °C 30.2in /  1022.6hPa Calm     47% 0.000in /  0mm
19:39 43.0 °F /  6.1 °C 24.0 °F /  -4.4 °C 30.2in /  1022.6hPa Calm     47% 0.000in /  0mm
19:44 43.0 °F /  6.1 °C 24.0 °F /  -4.4 °C 30.2in /  1022.6hPa Calm     47% 0.000in /  0mm
19:49 43.0 °F /  6.1 °C 24.0 °F /  -4.4 °C 30.2in /  1022.6hPa Calm     47% 0.000in /  0mm
19:54 44.0 °F /  6.7 °C 25.0 °F /  -3.9 °C 30.2in /  1022.6hPa Calm     47% 0.000in /  0mm
19:59 43.0 °F /  6.1 °C 24.0 °F /  -4.4 °C 30.2in /  1022.6hPa Calm     47% 0.000in /  0mm
20:04 43.0 °F /  6.1 °C 24.0 °F /  -4.4 °C 30.2in /  1022.6hPa Calm     47% 0.000in /  0mm
20:09 43.0 °F /  6.1 °C 24.0 °F /  -4.4 °C 30.2in /  1022.6hPa Calm     47% 0.000in /  0mm
20:14 43.0 °F /  6.1 °C 24.0 °F /  -4.4 °C 30.2in /  1022.6hPa Calm     47% 0.000in /  0mm
20:19 44.0 °F /  6.7 °C 25.0 °F /  -3.9 °C 30.2in /  1022.6hPa Calm     47% 0.000in /  0mm
20:24 44.0 °F /  6.7 °C 25.0 °F /  -3.9 °C 30.2in /  1022.6hPa Calm     47% 0.000in /  0mm
20:29 44.0 °F /  6.7 °C 25.0 °F /  -3.9 °C 30.2in /  1022.6hPa Calm     47% 0.000in /  0mm
20:34 44.0 °F /  6.7 °C 25.0 °F /  -3.9 °C 30.2in /  1022.6hPa Calm     47% 0.000in /  0mm
20:39 44.0 °F /  6.7 °C 25.0 °F /  -3.9 °C 30.2in /  1022.6hPa Calm     47% 0.000in /  0mm
20:44 44.0 °F /  6.7 °C 25.0 °F /  -3.9 °C 30.2in /  1022.6hPa Calm     47% 0.000in /  0mm
20:49 44.0 °F /  6.7 °C 25.0 °F /  -3.9 °C 30.2in /  1022.6hPa Calm     47% 0.000in /  0mm
20:54 44.0 °F /  6.7 °C 25.0 °F /  -3.9 °C 30.2in /  1022.6hPa Calm     47% 0.000in /  0mm
20:59 44.0 °F /  6.7 °C 25.0 °F /  -3.9 °C 30.2in /  1022.6hPa Calm     47% 0.000in /  0mm
21:04 44.0 °F /  6.7 °C 25.0 °F /  -3.9 °C 30.2in /  1022.6hPa Calm     47% 0.000in /  0mm
21:09 44.0 °F /  6.7 °C 25.0 °F /  -3.9 °C 30.2in /  1022.6hPa Calm     47% 0.000in /  0mm
21:14 44.0 °F /  6.7 °C 25.0 °F /  -3.9 °C 30.2in /  1022.6hPa Calm     47% 0.000in /  0mm
21:19 44.0 °F /  6.7 °C 25.0 °F /  -3.9 °C 30.2in /  1022.6hPa Calm     47% 0.000in /  0mm
21:24 44.0 °F /  6.7 °C 25.0 °F /  -3.9 °C 30.2in /  1022.6hPa Calm     47% 0.000in /  0mm
21:29 44.0 °F /  6.7 °C 25.0 °F /  -3.9 °C 30.2in /  1022.6hPa Calm     47% 0.000in /  0mm
21:34 44.0 °F /  6.7 °C 25.0 °F /  -3.9 °C 30.2in /  1022.6hPa Calm     47% 0.000in /  0mm
21:39 44.0 °F /  6.7 °C 25.0 °F /  -3.9 °C 30.2in /  1022.6hPa Calm     46% 0.000in /  0mm
21:44 44.0 °F /  6.7 °C 25.0 °F /  -3.9 °C 30.2in /  1022.6hPa Calm     46% 0.000in /  0mm
21:49 44.0 °F /  6.7 °C 25.0 °F /  -3.9 °C 30.2in /  1022.6hPa Calm     47% 0.000in /  0mm
21:54 44.0 °F /  6.7 °C 25.0 °F /  -3.9 °C 30.2in /  1022.6hPa Calm     46% 0.000in /  0mm
21:59 44.0 °F /  6.7 °C 25.0 °F /  -3.9 °C 30.2in /  1022.6hPa Calm     46% 0.000in /  0mm
22:04 44.0 °F /  6.7 °C 25.0 °F /  -3.9 °C 30.2in /  1022.6hPa Calm     46% 0.000in /  0mm
22:09 44.0 °F /  6.7 °C 25.0 °F /  -3.9 °C 30.2in /  1022.6hPa Calm     46% 0.000in /  0mm
22:14 44.0 °F /  6.7 °C 25.0 °F /  -3.9 °C 30.2in /  1022.6hPa Calm     46% 0.000in /  0mm
22:19 44.0 °F /  6.7 °C 25.0 °F /  -3.9 °C 30.2in /  1022.6hPa Calm     46% 0.000in /  0mm
22:24 45.0 °F /  7.2 °C 25.0 °F /  -3.9 °C 30.2in /  1022.6hPa Calm     46% 0.000in /  0mm
22:29 45.0 °F /  7.2 °C 25.0 °F /  -3.9 °C 30.2in /  1022.6hPa Calm     46% 0.000in /  0mm
22:34 44.0 °F /  6.7 °C 25.0 °F /  -3.9 °C 30.2in /  1022.6hPa Calm     46% 0.000in /  0mm
22:39 44.0 °F /  6.7 °C 25.0 °F /  -3.9 °C 30.2in /  1022.6hPa Calm     46% 0.000in /  0mm
22:44 44.0 °F /  6.7 °C 25.0 °F /  -3.9 °C 30.2in /  1022.6hPa Calm     46% 0.000in /  0mm
22:49 44.0 °F /  6.7 °C 25.0 °F /  -3.9 °C 30.2in /  1022.6hPa Calm     46% 0.000in /  0mm
22:54 44.0 °F /  6.7 °C 25.0 °F /  -3.9 °C 30.2in /  1022.6hPa Calm     46% 0.000in /  0mm
22:59 44.0 °F /  6.7 °C 25.0 °F /  -3.9 °C 30.2in /  1022.6hPa Calm     46% 0.000in /  0mm
23:04 44.0 °F /  6.7 °C 25.0 °F /  -3.9 °C 30.2in /  1022.6hPa Calm     46% 0.000in /  0mm
23:09 45.0 °F /  7.2 °C 25.0 °F /  -3.9 °C 30.2in /  1022.6hPa Calm     46% 0.000in /  0mm
23:14 45.0 °F /  7.2 °C 25.0 °F /  -3.9 °C 30.2in /  1022.6hPa Calm     46% 0.000in /  0mm
23:19 45.0 °F /  7.2 °C 25.0 °F /  -3.9 °C 30.2in /  1022.6hPa Calm     46% 0.010in /  0.25mm
23:24 45.0 °F /  7.2 °C 25.0 °F /  -3.9 °C 30.2in /  1022.6hPa Calm     46% 0.010in /  0.25mm
23:29 45.0 °F /  7.2 °C 25.0 °F /  -3.9 °C 30.2in /  1022.6hPa Calm     46% 0.010in /  0.25mm
23:34 44.0 °F /  6.7 °C 25.0 °F /  -3.9 °C 30.2in /  1022.6hPa Calm     46% 0.010in /  0.25mm
23:39 45.0 °F /  7.2 °C 25.0 °F /  -3.9 °C 30.2in /  1022.6hPa Calm     46% 0.010in /  0.25mm
23:44 45.0 °F /  7.2 °C 25.0 °F /  -3.9 °C 30.2in /  1022.6hPa Calm     46% 0.010in /  0.25mm
23:49 45.0 °F /  7.2 °C 25.0 °F /  -3.9 °C 30.2in /  1022.6hPa Calm     46% 0.010in /  0.25mm
23:54 45.0 °F /  7.2 °C 25.0 °F /  -3.9 °C 30.2in /  1022.6hPa Calm     46% 0.010in /  0.25mm
23:59 45.0 °F /  7.2 °C 25.0 °F /  -3.9 °C 30.2in /  1022.6hPa Calm     46% 0.010in /  0.25mm
East Ellijay Weather
Compliments of Weather Underground - 4 mb